Time,TemperatureF,DewpointF,PressureIn,WindDirection,WindDirectionDegrees,WindSpeedMPH,WindSpeedGustMPH,Humidity,HourlyPrecipIn,Conditions,Clouds,dailyrainin,SolarRadiationWatts/m^2,SoftwareType,DateUTC
2013-07-27 00:02:00,57.0,57.0,-100.00,West,275,9.0,15.0,99,0.00,,,2.98,0.000000,,2013-07-27 04:02:00,
2013-07-27 00:32:00,55.0,54.0,-100.00,WNW,290,5.0,10.0,98,0.00,,,-99.99,0.000000,,2013-07-27 04:32:00,
2013-07-27 00:43:00,55.0,54.0,-100.00,WNW,290,5.0,10.0,98,0.00,,,-99.99,0.000000,,2013-07-27 04:43:00,
2013-07-27 00:53:00,55.0,54.0,-100.00,WNW,290,5.0,10.0,98,0.00,,,-99.99,0.000000,,2013-07-27 04:53:00,
2013-07-27 01:02:00,55.0,54.0,-100.00,WNW,290,5.0,10.0,98,0.00,,,-99.99,0.000000,,2013-07-27 05:02:00,
2013-07-27 01:33:00,56.0,56.0,-100.00,NNW,336,0.0,9.0,99,0.00,,,2.98,0.000000,,2013-07-27 05:33:00,
2013-07-27 01:43:00,56.0,56.0,-100.00,NNW,336,0.0,9.0,99,0.00,,,2.98,0.000000,,2013-07-27 05:43:00,
2013-07-27 01:52:00,56.0,56.0,-100.00,NNW,336,0.0,9.0,99,0.00,,,2.98,0.000000,,2013-07-27 05:52:00,
2013-07-27 02:02:00,56.0,56.0,-100.00,NNW,336,0.0,9.0,99,0.00,,,2.98,0.000000,,2013-07-27 06:02:00,
2013-07-27 02:33:00,54.0,54.0,-100.00,North,359,2.0,7.0,99,0.00,,,2.98,0.000000,,2013-07-27 06:33:00,
2013-07-27 02:43:00,54.0,54.0,-100.00,North,359,2.0,7.0,99,0.00,,,2.98,0.000000,,2013-07-27 06:43:00,
2013-07-27 02:52:00,54.0,54.0,-100.00,North,359,2.0,7.0,99,0.00,,,2.98,0.000000,,2013-07-27 06:52:00,
2013-07-27 03:02:00,54.0,54.0,-100.00,North,359,2.0,7.0,99,0.00,,,2.98,0.000000,,2013-07-27 07:02:00,
2013-07-27 03:34:00,54.0,54.0,-100.00,NW,320,3.0,6.0,99,0.00,,,2.89,0.000000,,2013-07-27 07:34:00,
2013-07-27 03:44:00,54.0,54.0,-100.00,NW,320,3.0,6.0,99,0.00,,,2.89,0.000000,,2013-07-27 07:44:00,
2013-07-27 03:53:00,54.0,54.0,-100.00,NW,320,3.0,6.0,99,0.00,,,2.89,0.000000,,2013-07-27 07:53:00,
2013-07-27 04:02:00,54.0,54.0,-100.00,NW,320,3.0,6.0,99,0.00,,,2.89,0.000000,,2013-07-27 08:02:00,
2013-07-27 04:22:00,52.0,52.0,-100.00,West,281,5.0,8.0,99,0.00,,,2.89,0.000000,,2013-07-27 08:22:00,
2013-07-27 04:32:00,52.0,52.0,-100.00,West,281,5.0,8.0,99,0.00,,,2.89,0.000000,,2013-07-27 08:32:00,
2013-07-27 04:43:00,52.0,52.0,-100.00,West,281,5.0,8.0,99,0.00,,,2.89,0.000000,,2013-07-27 08:43:00,
2013-07-27 04:53:00,52.0,52.0,-100.00,West,281,5.0,8.0,99,0.00,,,2.89,0.000000,,2013-07-27 08:53:00,
2013-07-27 05:02:00,52.0,52.0,-100.00,West,281,5.0,8.0,99,0.00,,,2.89,0.000000,,2013-07-27 09:02:00,
2013-07-27 05:22:00,50.0,50.0,-100.00,NNW,333,2.0,8.0,99,0.00,,,2.88,0.000000,,2013-07-27 09:22:00,
2013-07-27 05:33:00,50.0,50.0,-100.00,NNW,333,2.0,8.0,99,0.00,,,2.88,0.000000,,2013-07-27 09:33:00,
2013-07-27 05:44:00,50.0,50.0,-100.00,NNW,333,2.0,8.0,99,0.00,,,2.88,0.000000,,2013-07-27 09:44:00,
2013-07-27 05:52:00,50.0,50.0,-100.00,NNW,333,2.0,8.0,99,0.00,,,2.88,0.000000,,2013-07-27 09:52:00,
2013-07-27 06:02:00,50.0,50.0,-100.00,NNW,333,2.0,8.0,99,0.00,,,2.88,0.000000,,2013-07-27 10:02:00,
2013-07-27 06:32:00,49.0,49.0,-100.00,North,359,2.0,5.0,99,0.00,,,2.88,0.000000,,2013-07-27 10:32:00,
2013-07-27 06:44:00,49.0,49.0,-100.00,North,359,2.0,5.0,99,0.00,,,2.88,0.000000,,2013-07-27 10:44:00,
2013-07-27 06:52:00,49.0,49.0,-100.00,North,359,2.0,5.0,99,0.00,,,2.88,0.000000,,2013-07-27 10:52:00,
2013-07-27 07:02:00,49.0,49.0,-100.00,North,359,2.0,5.0,99,0.00,,,2.88,0.000000,,2013-07-27 11:02:00,
2013-07-27 07:32:00,49.0,49.0,-100.00,North,8,2.0,5.0,99,0.00,,,2.88,9.000000,,2013-07-27 11:32:00,
2013-07-27 07:44:00,49.0,49.0,-100.00,North,8,2.0,5.0,99,0.00,,,2.88,9.000000,,2013-07-27 11:44:00,
2013-07-27 07:53:00,49.0,49.0,-100.00,North,8,2.0,5.0,99,0.00,,,2.88,9.000000,,2013-07-27 11:53:00,
2013-07-27 08:03:00,49.0,49.0,-100.00,North,8,2.0,5.0,99,0.00,,,2.88,9.000000,,2013-07-27 12:03:00,
2013-07-27 08:33:00,50.0,50.0,-100.00,NNW,334,5.0,8.0,99,0.00,,,2.88,48.000000,,2013-07-27 12:33:00,
2013-07-27 08:43:00,50.0,50.0,-100.00,NNW,334,5.0,8.0,99,0.00,,,2.88,48.000000,,2013-07-27 12:43:00,
2013-07-27 08:52:00,50.0,50.0,-100.00,NNW,334,5.0,8.0,99,0.00,,,2.88,48.000000,,2013-07-27 12:52:00,
2013-07-27 09:02:00,50.0,50.0,-100.00,NNW,334,5.0,8.0,99,0.00,,,2.88,48.000000,,2013-07-27 13:02:00,
2013-07-27 09:44:00,50.0,50.0,-100.00,NNW,343,4.0,7.0,99,0.00,,,2.88,87.000000,,2013-07-27 13:44:00,
2013-07-27 09:53:00,50.0,50.0,-100.00,NNW,343,4.0,7.0,99,0.00,,,2.88,87.000000,,2013-07-27 13:53:00,
2013-07-27 10:02:00,50.0,50.0,-100.00,NNW,343,4.0,7.0,99,0.00,,,2.88,87.000000,,2013-07-27 14:02:00,
2013-07-27 10:33:00,51.0,50.0,-100.00,NNE,19,4.0,5.0,98,0.00,,,2.88,120.000000,,2013-07-27 14:33:00,
2013-07-27 10:44:00,51.0,50.0,-100.00,NNE,19,4.0,5.0,98,0.00,,,2.88,120.000000,,2013-07-27 14:44:00,
2013-07-27 10:54:00,51.0,50.0,-100.00,NNE,19,4.0,5.0,98,0.00,,,2.88,120.000000,,2013-07-27 14:54:00,
2013-07-27 11:02:00,51.0,50.0,-100.00,NNE,19,4.0,5.0,98,0.00,,,2.88,120.000000,,2013-07-27 15:02:00,
2013-07-27 11:33:00,53.0,52.0,-100.00,NE,36,4.0,7.0,97,0.00,,,2.88,181.000000,,2013-07-27 15:33:00,
2013-07-27 11:44:00,53.0,52.0,-100.00,NE,36,4.0,7.0,97,0.00,,,2.88,181.000000,,2013-07-27 15:44:00,
2013-07-27 11:53:00,53.0,52.0,-100.00,NE,36,4.0,7.0,97,0.00,,,2.88,181.000000,,2013-07-27 15:53:00,
2013-07-27 12:02:00,53.0,52.0,-100.00,NE,36,4.0,7.0,97,0.00,,,2.88,181.000000,,2013-07-27 16:02:00,
2013-07-27 12:33:00,54.0,52.0,-100.00,North,10,5.0,9.0,94,0.00,,,2.86,205.000000,,2013-07-27 16:33:00,
2013-07-27 12:43:00,54.0,52.0,-100.00,North,10,5.0,9.0,94,0.00,,,2.86,205.000000,,2013-07-27 16:43:00,
2013-07-27 12:54:00,54.0,52.0,-100.00,North,10,5.0,9.0,94,0.00,,,2.86,205.000000,,2013-07-27 16:54:00,
2013-07-27 13:02:00,54.0,52.0,-100.00,North,10,5.0,9.0,94,0.00,,,2.86,205.000000,,2013-07-27 17:02:00,
2013-07-27 13:23:00,55.0,52.0,-100.00,NNE,13,5.0,9.0,88,0.00,,,2.77,278.000000,,2013-07-27 17:23:00,
2013-07-27 13:32:00,55.0,52.0,-100.00,NNE,13,5.0,9.0,88,0.00,,,2.77,278.000000,,2013-07-27 17:32:00,
2013-07-27 13:43:00,55.0,52.0,-100.00,NNE,13,5.0,9.0,88,0.00,,,2.77,278.000000,,2013-07-27 17:43:00,
2013-07-27 13:54:00,55.0,52.0,-100.00,NNE,13,5.0,9.0,88,0.00,,,2.77,278.000000,,2013-07-27 17:54:00,
2013-07-27 14:03:00,55.0,52.0,-100.00,NNE,13,5.0,9.0,88,0.00,,,2.77,278.000000,,2013-07-27 18:03:00,
2013-07-27 14:22:00,57.0,52.0,-100.00,NNE,24,6.0,10.0,84,0.00,,,2.68,311.000000,,2013-07-27 18:22:00,
2013-07-27 14:33:00,57.0,52.0,-100.00,NNE,24,6.0,10.0,84,0.00,,,2.68,311.000000,,2013-07-27 18:33:00,
2013-07-27 14:43:00,57.0,52.0,-100.00,NNE,24,6.0,10.0,84,0.00,,,2.68,311.000000,,2013-07-27 18:43:00,
2013-07-27 14:53:00,57.0,52.0,-100.00,NNE,24,6.0,10.0,84,0.00,,,2.68,311.000000,,2013-07-27 18:53:00,
2013-07-27 15:02:00,57.0,52.0,-100.00,NNE,24,6.0,10.0,84,0.00,,,2.68,311.000000,,2013-07-27 19:02:00,
2013-07-27 15:23:00,58.0,52.0,-100.00,NNE,13,7.0,11.0,79,0.00,,,2.68,453.000000,,2013-07-27 19:23:00,
2013-07-27 15:32:00,58.0,52.0,-100.00,NNE,13,7.0,11.0,79,0.00,,,2.68,453.000000,,2013-07-27 19:32:00,
2013-07-27 15:43:00,58.0,52.0,-100.00,NNE,13,7.0,11.0,79,0.00,,,2.68,453.000000,,2013-07-27 19:43:00,
2013-07-27 15:53:00,58.0,52.0,-100.00,NNE,13,7.0,11.0,79,0.00,,,2.68,453.000000,,2013-07-27 19:53:00,
2013-07-27 16:02:00,58.0,52.0,-100.00,NNE,13,7.0,11.0,79,0.00,,,2.68,453.000000,,2013-07-27 20:02:00,
2013-07-27 16:23:00,59.0,51.0,-100.00,North,1,6.0,12.0,76,0.00,,,1.22,453.000000,,2013-07-27 20:23:00,
2013-07-27 16:33:00,59.0,51.0,-100.00,North,1,6.0,12.0,76,0.00,,,1.22,453.000000,,2013-07-27 20:33:00,
2013-07-27 16:43:00,59.0,51.0,-100.00,North,1,6.0,12.0,76,0.00,,,1.22,453.000000,,2013-07-27 20:43:00,
2013-07-27 16:52:00,59.0,51.0,-100.00,North,1,6.0,12.0,76,0.00,,,1.22,453.000000,,2013-07-27 20:52:00,
2013-07-27 17:03:00,59.0,51.0,-100.00,North,1,6.0,12.0,76,0.00,,,1.22,453.000000,,2013-07-27 21:03:00,
2013-07-27 17:23:00,60.0,52.0,-100.00,NNE,13,7.0,14.0,76,0.00,,,1.03,480.000000,,2013-07-27 21:23:00,
2013-07-27 17:33:00,60.0,52.0,-100.00,NNE,13,7.0,14.0,76,0.00,,,1.03,480.000000,,2013-07-27 21:33:00,
2013-07-27 17:43:00,60.0,52.0,-100.00,NNE,13,7.0,14.0,76,0.00,,,1.03,480.000000,,2013-07-27 21:43:00,
2013-07-27 17:53:00,60.0,52.0,-100.00,NNE,13,7.0,14.0,76,0.00,,,1.03,480.000000,,2013-07-27 21:53:00,
2013-07-27 18:02:00,60.0,52.0,-100.00,NNE,13,7.0,14.0,76,0.00,,,1.03,480.000000,,2013-07-27 22:02:00,
2013-07-27 18:22:00,57.0,50.0,-100.00,NNE,13,6.0,12.0,77,0.00,,,0.64,389.000000,,2013-07-27 22:22:00,
2013-07-27 18:33:00,57.0,50.0,-100.00,NNE,13,6.0,12.0,77,0.00,,,0.64,389.000000,,2013-07-27 22:33:00,
2013-07-27 18:43:00,57.0,50.0,-100.00,NNE,13,6.0,12.0,77,0.00,,,0.64,389.000000,,2013-07-27 22:43:00,
2013-07-27 18:53:00,57.0,50.0,-100.00,NNE,13,6.0,12.0,77,0.00,,,0.64,389.000000,,2013-07-27 22:53:00,
2013-07-27 19:02:00,57.0,50.0,-100.00,NNE,13,6.0,12.0,77,0.00,,,0.64,389.000000,,2013-07-27 23:02:00,
2013-07-27 19:22:00,56.0,50.0,-100.00,North,354,7.0,14.0,81,0.00,,,0.05,173.000000,,2013-07-27 23:22:00,
2013-07-27 19:32:00,56.0,50.0,-100.00,North,354,7.0,14.0,81,0.00,,,0.05,173.000000,,2013-07-27 23:32:00,
2013-07-27 19:44:00,56.0,50.0,-100.00,North,354,7.0,14.0,81,0.00,,,0.05,173.000000,,2013-07-27 23:44:00,
2013-07-27 19:53:00,56.0,50.0,-100.00,North,354,7.0,14.0,81,0.00,,,0.05,173.000000,,2013-07-27 23:53:00,
2013-07-27 20:02:00,56.0,50.0,-100.00,North,354,7.0,14.0,81,0.00,,,0.05,173.000000,,2013-07-28 00:02:00,
2013-07-27 20:23:00,56.0,50.0,-100.00,North,357,5.0,13.0,81,0.00,,,0.01,151.000000,,2013-07-28 00:23:00,
2013-07-27 20:32:00,56.0,50.0,-100.00,North,357,5.0,13.0,81,0.00,,,0.01,151.000000,,2013-07-28 00:32:00,
2013-07-27 20:44:00,56.0,50.0,-100.00,North,357,5.0,13.0,81,0.00,,,0.01,151.000000,,2013-07-28 00:44:00,
2013-07-27 20:53:00,56.0,50.0,-100.00,North,357,5.0,13.0,81,0.00,,,0.01,151.000000,,2013-07-28 00:53:00,
2013-07-27 21:02:00,56.0,50.0,-100.00,North,357,5.0,13.0,81,0.00,,,0.01,151.000000,,2013-07-28 01:02:00,
2013-07-27 21:23:00,53.0,48.0,-100.00,North,350,6.0,12.0,84,0.00,,,0.01,36.000000,,2013-07-28 01:23:00,
2013-07-27 21:32:00,53.0,48.0,-100.00,North,350,6.0,12.0,84,0.00,,,0.01,36.000000,,2013-07-28 01:32:00,
2013-07-27 21:43:00,53.0,48.0,-100.00,North,350,6.0,12.0,84,0.00,,,0.01,36.000000,,2013-07-28 01:43:00,
2013-07-27 21:53:00,53.0,48.0,-100.00,North,350,6.0,12.0,84,0.00,,,0.01,36.000000,,2013-07-28 01:53:00,
2013-07-27 22:03:00,53.0,48.0,-100.00,North,350,6.0,12.0,84,0.00,,,0.01,36.000000,,2013-07-28 02:03:00,
2013-07-27 22:23:00,52.0,48.0,-100.00,North,358,6.0,12.0,86,0.00,,,0.00,1.000000,,2013-07-28 02:23:00,
2013-07-27 22:32:00,52.0,48.0,-100.00,North,358,6.0,12.0,86,0.00,,,0.00,1.000000,,2013-07-28 02:32:00,
2013-07-27 22:42:00,52.0,48.0,-100.00,North,358,6.0,12.0,86,0.00,,,0.00,1.000000,,2013-07-28 02:42:00,
2013-07-27 22:53:00,52.0,48.0,-100.00,North,358,6.0,12.0,86,0.00,,,0.00,1.000000,,2013-07-28 02:53:00,
2013-07-27 23:03:00,52.0,48.0,-100.00,North,358,6.0,12.0,86,0.00,,,0.00,1.000000,,2013-07-28 03:03:00,
2013-07-27 23:22:00,51.0,47.0,-100.00,NNW,334,6.0,10.0,86,0.00,,,0.00,0.000000,,2013-07-28 03:22:00,
2013-07-27 23:32:00,51.0,47.0,-100.00,NNW,334,6.0,10.0,86,0.00,,,0.00,0.000000,,2013-07-28 03:32:00,
2013-07-27 23:43:00,51.0,47.0,-100.00,NNW,334,6.0,10.0,86,0.00,,,0.00,0.000000,,2013-07-28 03:43:00,
2013-07-27 23:53:00,51.0,47.0,-100.00,NNW,334,6.0,10.0,86,0.00,,,0.00,0.000000,,2013-07-28 03:53:00,